Погода в Алейске

Погода в Алейске : погода сейчас, прогноз погоды и архив. Всё, что Вы хотите узнать о погоде в Алейске!

Хотите узнать прогноз погоды в Алейске? Тогда Вам сюда: Погода в Алейске

Поиск расширенной информации на нашем сайте:

Другие новости

Новости СМИ2

Главная страница сайта

Новости сайта

02.10.2013

Напоминаем, что на нашем новом сайте вы можете получить высокодетализированные прогнозы погоды по пунктам России, СНГ и мира (включающие важные для авиации метеовеличины, такие как направление и скорость ветра, видимость, явления погоды, количество и форма облачности, нижняя и верхняя граница облачности), а также ознакомиться с разнообразными материалами по авиационной метеорологии и подборкой полезных ссылок на эту тему.

Сайт Метеоцентр.Азия посвящён разработке технологий оптимизации авиаметеорологического обслуживания, включая проектирование и перспективное создание нескольких автоматизированных авиаметеорологических систем:
- система выпуска высокодетальных прогностических карт явлений погоды для нижнего воздушного пространства по России и ближнему зарубежью;
- система верификации прогнозов TAF (выпускаемых синоптиками официальных АМСГ РФ и ближнего зарубежья) и AUTOTAF (выпускаемых сайтом Метеоцентр.Азия) - выявление ошибок, онлайн-сопоставление с фактической погодой METAR, автоматическое внесение коррективов в прогнозы при резком отклонении фактической погоды от прогноза, подсчёт оправдываемости прогнозов по элементам и в целом;
- система обработки, анализа и отображения авиаметеорологической информации для применения провайдерами метеорологической информации.

Рекомендуем: овощи доставка стоимость

Погода в Алейске - сегодня

Время (UTC), дата Ветер
(°,м/с) 
Видим.   Явления Облачность Т
(°С)
Тd
(°С)
f(%) Тe
(°С)
Pmin
(гПа)
dP
(гПа)
Po
(мм)
O2
(г/м3)
Тmin Tmax R s Состояние
почвы
18 26.05.17 тихо ()   20000 м    ясно 
+5.8 -0.6 63 +6  1026.6  1.5  754  297           
21 26.05.17 020 (С) 20000 м    ясно 
+4.7 +0.2 73 +4  1027  0.4  754  299           
00 27.05.17 040 (СВ) 20000 м    ясно 
+7.8 +1.3 63 +8  1026.6  -0.2  754  295  +4.6        сухая 
03 27.05.17 050 (СВ) 20000 м    ясно 
+15.4 +0.2 35 +15  1025.5  -0.5  753  287           
06 27.05.17 030 (СВ) 20000 м    ясно 
+19.2 -0.3 27 +20  1022.8  -2.4  752  283           
09 27.05.17 040 (СВ) 20000 м    ясно 
+22.1 -1.7 20 +22  1019.4  -3.1  749  279           
12 27.05.17 040 (СВ) 20000 м    ясно 
+22.3 -1 21 +22  1017.5  -1.9  748  279    +23.2       
15 27.05.17 020 (С) 20000 м    ясно 
+15.7 +0.8 36 +16  1016.8  -1.1  747  284           
18 27.05.17 020 (С) 20000 м    ясно 
+10.8 +1.6 53 +12  1015.3  -1.8  746  289           
21 27.05.17 тихо ()   20000 м    ясно 
+9.2 +1.5 59 +9  1013.1  -2.3  744  290           
00 28.05.17 010 (С) 20000 м    ясно 
+10.8 +2.3 56 +12  1012.2  -0.7  743  288  +6.6        сухая 
03 28.05.17 120 (ЮВ) 20000 м    ясно 
+19.6 +6.2 42 +21  1010.5  -1.1  743  278           
06 28.05.17 170 (Ю) 20000 м    6/0 верхняя 
[Ci sp]
+27.3 +1.9 19 +27  1007.9  -2.1  741  271           
09 28.05.17 200 (Ю) 20000 м    8/0 верхняя 
[Ci sp]
+29 -2.5 13 +29  1006.2  -1.5  740  270           
12 28.05.17 190 (Ю) 20000 м    8/0 верхняя 
[Ci sp]
+29.5 -3.9 11 +30  1004.6  -1.6  739  269    +30.4       
15 28.05.17 150 (ЮВ) 20000 м    9/6 600 м верхняя 
[Sc|Ci sp]
+21.5 +1.7 27 +22  1004.7  -0.4  738  276           
18 28.05.17 180 (Ю) 20000 м    10/10 600 м 
[Sc]
+23.5 +2.3 25 +24  1004.2  -0.3  738  273           
21 28.05.17 190 (Ю) 4{10}  20000 м    10/10 600 м 
[Sc]
+22.1 +7.6 39 +22  1006.5  2.1  740  274           
00 29.05.17 180 (Ю) 20000 м    6/3 600 м верхняя 
[Sc|Ci fib]
+17.5 +11 66 +21  1008.4  1.6  741  279  +17.5        сухая 
03 29.05.17 170 (Ю) 20000 м    1/0 верхняя 
[Ci]
+23.1 +11 46 +26  1008.4  0.5  741  273  +17.4         
06 29.05.17 180 (Ю) 4{10}  20000 м    5/5 1000 м 
[Cu med, cong]
+26.8 +5.9 26 +27  1007.5  -0.8  741  271           
09 29.05.17 180 (Ю) 4{11}  20000 м    8/5 1000 м верхняя 
[Cu med, cong|Ci sp]
+26.9 +5.6 26 +27  1006.1  -1.3  740  270           
12 29.05.17 160 (Ю) 20000 м    8/1 1000 м верхняя 
[Sc diur, vesp|Cs]
+27.9 +5.2 24 +28  1003.9  -2.1  738  269    +28.5       
15 29.05.17 110 (В) 20000 м    4/3 1000 м верхняя 
[Frnb|Cs]
+20.4 +7.9 44 +21  1003.8  -0.5  688  257           
18 29.05.17 тихо ()   20000 м    ясно 
+16 +9.5 65 +17  1002.6  -1.5  737  279           
Время (UTC), дата Ветер
(°,м/с) 
Видим.   Явления Облачность Т
(°С)
Тd
(°С)
f(%) Тe
(°С)
Pmin
(гПа)
dP
(гПа)
Po
(мм)
O2
(г/м3)
Тmin Tmax R s Состояние
почвы

Для получения пояснительной информации подведите курсор к названию столбца.

ПОГОДА в Алейске - архив

Всё, что Вы хотите узнать о погоде в Алейске - удобно и подробно!

Выберите нужную дату (начиная с 1 января 2015* года) и нажмите кнопку "Найти".
Будут отображены архивные сводки погоды по пункту Алейск, начиная с указанной даты.


Отображать данные в формате CSV (для использования в таблицах Excel)


Внимание! Наш архив погоды предназначен исключительно для личного некоммерческого использования в познавательных целях. Если Вам необходимы официальные справки о состоянии погоды (для производственных, юридических, коммерческих и т.п. целей), обращайтесь в органы Росгидромета.

*Примечание: данная дата относится к архиву по метеостанциям СССР (Россия, СНГ, Балтия).
Архив по метеостанциям Зарубежной Европы и Азии (кроме Китая) хранится 10 дней, по другим регионам земного шара (Китай, Африка, Америка, Австралия, Океания) - 1 день.

Алейск - район местоположения метеостанции


Название, широта, долгота, высота метеостанции:
Алейск 52.6°ш. 82.8°д. 175 м над ур. моря [Российская Федерация]

Дополнительная информация

В oтличие oт бoльшинства пoгoдных сайтoв мы публикуем пoдрoбную метеoинфoрмацию в детальнoм прoфессиoнальнoм фoрмате.

Характеристики температуры и влажнoсти вoздуха измеряются на высoте 2 м в тени вдали oт зданий и деревьев.
Скoрoсть ветра измеряется на высoте 10 м (на урoвне рoста челoвека скoрoсть ветра ниже в 1.5-2 раза). Если метеoстанция нахoдится в гoрoде или в лесу, тo скoрoсть ветра занижена на 2-4 м/с пo сравнению с oткрытым местoм. Скoрoсть ветра над акватoриями крупных рек и oзёр, а также на вершинах хoлмoв на 2-5 м/с выше, чем в oбычных услoвиях.
Атмoсфернoе давление в разных тoчках местнoсти мoжет значительнo oтличаться oт давления на метеoстанции, в зависимoсти oт услoвий рельефа (при пoдъёме на 10 м давление пoнижается примернo на 1 мм рт.ст.).